Weather History for Monett, MO

Change the Weather History Date:

Wednesday, February 13, 2013

  Actual Average (KJLN) Record (KJLN)
Temperature  
Mean Temperature 39 °F 39 °F  
Max Temperature 46 °F 50 °F 78 °F (1962)
Min Temperature 32 °F 29 °F 11 °F (1958)
Degree Days  
Heating Degree Days 26 26  
Month to date heating degree days 355  
Since 1 July heating degree days 2904  
Cooling Degree Days 0 0  
Month to date cooling degree days 0  
Year to date cooling degree days 0  
Moisture  
Dew Point 32 °F    
Average Humidity 86    
Maximum Humidity 100    
Minimum Humidity 57    
Precipitation  
Precipitation 0.03 in 0.09 in 0.88 in (2001)
Month to date precipitation 0.98  
Year to date precipitation 3.01  
Sea Level Pressure  
Sea Level Pressure 29.93 in    
Wind  
Wind Speed 6 mph (WSW)    
Max Wind Speed 15 mph    
Max Gust Speed 17 mph    
Visibility 6 miles    
Events Fog , Rain , Snow    
T = Trace of Precipitation, MM = Missing Value Source: NWS Daily Summary

Daily Weather History Graph

Daily Weather History Graph

Search for Another Location

Airport:

Trip Planner

Search our weather history database for the weather conditions in past years. The results will help you decide how hot, cold, wet, or windy it might be!

Date:

Astronomy

Feb. 13, 2013 Rise Set
Actual Time 7:06 AM CST 5:54 PM CST
Civil Twilight 6:39 AM CST 6:21 PM CST
Nautical Twilight 6:09 AM CST 6:51 PM CST
Astronomical Twilight 5:39 AM CST 7:21 PM CST
Moon 8:43 AM CST (2/13) 9:50 PM CST (2/13)
Length of Visible Light 11h 41m
Length of Day
10h 48m
Waxing Crescent, 14% of the Moon is Illuminated
Feb 13
Waxing Crescent
Feb 17
First Quarter
Feb 25
Full
Mar 4
Last Quarter
Mar 11
New

Hourly Weather History & Observations

Time (CST) Temp. Windchill Dew Point Humidity Pressure Visibility Wind Dir Wind Speed Gust Speed Precip Events Conditions
12:15 AM 32.0 °F - 32.0 °F 100% 29.95 in 1.5 mi Calm Calm - 0.01 in Snow Light Snow
12:35 AM 32.0 °F 28.7 °F 32.0 °F 100% 29.95 in 1.5 mi North 3.5 mph - 0.02 in Snow Light Snow
12:55 AM 32.0 °F 28.7 °F 32.0 °F 100% 29.94 in 2.5 mi North 3.5 mph - 0.03 in Snow Light Snow
1:15 AM 32.0 °F 27.5 °F 32.0 °F 100% 29.94 in 5.0 mi NNW 4.6 mph - N/A Rain Light Rain
1:35 AM 32.0 °F 26.4 °F 32.0 °F 100% 29.95 in 5.0 mi NNW 5.8 mph - N/A   Overcast
1:55 AM 32.0 °F 27.5 °F 32.0 °F 100% 29.95 in 4.0 mi NNW 4.6 mph - N/A Rain Light Rain
2:15 AM 32.0 °F 27.5 °F 32.0 °F 100% 29.94 in 4.0 mi NNW 4.6 mph - N/A Rain Light Rain
2:35 AM 32.0 °F 27.5 °F 32.0 °F 100% 29.94 in 2.0 mi NNW 4.6 mph - N/A Snow Light Snow
2:55 AM 32.0 °F 27.5 °F 32.0 °F 100% 29.94 in 1.5 mi NW 4.6 mph - N/A Snow Light Snow
3:15 AM 32.0 °F - 32.0 °F 100% 29.93 in 2.0 mi Calm Calm - N/A Snow Light Snow
3:35 AM 32.0 °F - 32.0 °F 100% 29.93 in 2.5 mi Calm Calm - N/A Snow Light Snow
3:55 AM 32.0 °F - 32.0 °F 100% 29.92 in 2.5 mi Calm Calm - N/A Snow Light Snow
4:15 AM 32.0 °F - 32.0 °F 100% 29.93 in 2.5 mi Calm Calm - N/A   Overcast
4:35 AM 32.0 °F 28.7 °F 32.0 °F 100% 29.93 in 2.5 mi West 3.5 mph - N/A Snow Light Snow
4:55 AM 32.0 °F 26.4 °F 32.0 °F 100% 29.93 in 1.8 mi West 5.8 mph - N/A   Overcast
5:15 AM 32.0 °F 27.5 °F 32.0 °F 100% 29.93 in 0.5 mi West 4.6 mph - N/A Fog Fog
5:35 AM 32.0 °F 28.7 °F 32.0 °F 100% 29.94 in 0.5 mi WSW 3.5 mph - N/A Fog Fog
5:55 AM 32.0 °F - 32.0 °F 100% 29.94 in 0.5 mi Calm Calm - N/A Fog Fog
6:15 AM 32.0 °F 28.7 °F 32.0 °F 100% 29.94 in 0.2 mi SW 3.5 mph - N/A Fog Fog
6:35 AM 32.0 °F 28.7 °F 32.0 °F 100% 29.95 in 0.2 mi WSW 3.5 mph - N/A Fog Fog
6:55 AM 32.0 °F 27.5 °F 32.0 °F 100% 29.96 in 0.2 mi SW 4.6 mph - N/A Fog Light Freezing Fog
7:15 AM 32.0 °F 26.4 °F 32.0 °F 100% 29.96 in 0.2 mi WSW 5.8 mph - N/A Fog Light Freezing Fog
7:35 AM 32.0 °F 24.8 °F 32.0 °F 100% 29.97 in 0.2 mi WSW 8.1 mph - N/A Fog Light Freezing Fog
7:55 AM 32.0 °F 24.8 °F 32.0 °F 100% 29.96 in 0.8 mi SW 8.1 mph - N/A   Overcast
8:15 AM 32.0 °F 26.4 °F 32.0 °F 100% 29.97 in 0.5 mi SW 5.8 mph - N/A Fog Fog
8:35 AM 32.0 °F 24.2 °F 32.0 °F 100% 29.96 in 1.5 mi SW 9.2 mph - N/A   Overcast
8:55 AM 32.0 °F 23.6 °F 32.0 °F 100% 29.96 in 1.5 mi SW 10.4 mph - N/A   Overcast
9:15 AM 32.0 °F 22.5 °F 32.0 °F 100% 29.96 in 2.0 mi SW 12.7 mph - N/A   Overcast
9:35 AM 32.0 °F 23.0 °F 32.0 °F 100% 29.96 in 5.0 mi SW 11.5 mph 16.1 mph N/A   Overcast
9:55 AM 32.0 °F 22.5 °F 32.0 °F 100% 29.96 in 5.0 mi WSW 12.7 mph - N/A   Overcast
10:15 AM 33.8 °F 24.3 °F 33.8 °F 100% 29.97 in 5.0 mi WSW 13.8 mph - N/A   Overcast
10:35 AM 33.8 °F 23.9 °F 33.8 °F 100% 29.97 in 7.0 mi WSW 15.0 mph - N/A   Overcast
10:55 AM 35.6 °F 28.0 °F 33.8 °F 93% 29.97 in 10.0 mi WSW 10.4 mph 17.3 mph N/A   Overcast
11:15 AM 35.6 °F 27.5 °F 33.8 °F 93% 29.97 in 10.0 mi WSW 11.5 mph - N/A   Overcast
11:35 AM 35.6 °F 27.1 °F 33.8 °F 93% 29.97 in 10.0 mi West 12.7 mph - N/A   Overcast
11:55 AM 37.4 °F 29.3 °F 33.8 °F 87% 29.97 in 10.0 mi WSW 12.7 mph - N/A   Overcast
12:15 PM 37.4 °F 29.3 °F 33.8 °F 87% 29.97 in 10.0 mi West 12.7 mph - N/A   Overcast
12:35 PM 39.2 °F 32.0 °F 33.8 °F 81% 29.96 in 10.0 mi WSW 11.5 mph - N/A   Mostly Cloudy
12:55 PM 41.0 °F 34.7 °F 35.6 °F 81% 29.95 in 10.0 mi SW 10.4 mph - N/A   Mostly Cloudy
1:15 PM 41.0 °F 34.3 °F 35.6 °F 81% 29.94 in 10.0 mi SW 11.5 mph - N/A   Mostly Cloudy
1:35 PM 42.8 °F 36.6 °F 33.8 °F 70% 29.93 in 10.0 mi WSW 11.5 mph - N/A   Scattered Clouds
1:55 PM 42.8 °F 36.2 °F 33.8 °F 70% 29.93 in 10.0 mi SW 12.7 mph - N/A   Clear
2:15 PM 44.6 °F 37.8 °F 33.8 °F 66% 29.93 in 10.0 mi WSW 15.0 mph - N/A   Clear
2:35 PM 44.6 °F 38.1 °F 33.8 °F 66% 29.92 in 10.0 mi WSW 13.8 mph - N/A   Clear
2:55 PM 44.6 °F 38.1 °F 33.8 °F 66% 29.93 in 10.0 mi WSW 13.8 mph - N/A   Clear
3:15 PM 46.4 °F 41.9 °F 32.0 °F 57% 29.92 in 10.0 mi West 9.2 mph - N/A   Clear
3:35 PM 46.4 °F 41.1 °F 32.0 °F 57% 29.91 in 10.0 mi West 11.5 mph - N/A   Clear
3:55 PM 46.4 °F 40.7 °F 33.8 °F 62% 29.91 in 10.0 mi SW 12.7 mph - N/A   Clear
4:15 PM 46.4 °F 41.1 °F 32.0 °F 57% 29.91 in 10.0 mi WSW 11.5 mph - N/A   Clear
4:35 PM 46.4 °F 41.1 °F 32.0 °F 57% 29.91 in 10.0 mi WSW 11.5 mph - N/A   Clear
4:55 PM 46.4 °F 41.1 °F 32.0 °F 57% 29.90 in 10.0 mi SW 11.5 mph - N/A   Clear
5:15 PM 44.6 °F 39.7 °F 32.0 °F 61% 29.90 in 10.0 mi SW 9.2 mph - N/A   Clear
5:35 PM 44.6 °F 40.2 °F 32.0 °F 61% 29.90 in 10.0 mi SW 8.1 mph - N/A   Clear
5:55 PM 42.8 °F 38.6 °F 32.0 °F 66% 29.90 in 10.0 mi SW 6.9 mph - N/A   Clear
6:15 PM 41.0 °F 37.1 °F 32.0 °F 70% 29.90 in 10.0 mi SW 5.8 mph - N/A   Clear
6:35 PM 41.0 °F 35.8 °F 32.0 °F 70% 29.90 in 10.0 mi SW 8.1 mph - N/A   Clear
6:55 PM 41.0 °F 35.8 °F 32.0 °F 70% 29.90 in 10.0 mi SW 8.1 mph - N/A   Clear
7:15 PM 39.2 °F 33.0 °F 32.0 °F 75% 29.90 in 10.0 mi SSW 9.2 mph - N/A   Clear
7:35 PM 39.2 °F 33.6 °F 32.0 °F 75% 29.90 in 10.0 mi SSW 8.1 mph - N/A   Clear
7:55 PM 39.2 °F 33.6 °F 32.0 °F 75% 29.91 in 10.0 mi SSW 8.1 mph - N/A   Clear
8:15 PM 37.4 °F 30.8 °F 32.0 °F 81% 29.91 in 10.0 mi SSW 9.2 mph - N/A   Clear
8:35 PM 39.2 °F 33.0 °F 32.0 °F 75% 29.91 in 10.0 mi SSW 9.2 mph - N/A   Clear
8:55 PM 39.2 °F 33.0 °F 32.0 °F 75% 29.91 in 10.0 mi SSW 9.2 mph - N/A   Clear
9:15 PM 37.4 °F 32.1 °F 32.0 °F 81% 29.91 in 10.0 mi SW 6.9 mph - N/A   Clear
9:35 PM 37.4 °F 31.4 °F 32.0 °F 81% 29.91 in 10.0 mi SW 8.1 mph - N/A   Clear
9:55 PM 37.4 °F 31.4 °F 32.0 °F 81% 29.92 in 10.0 mi SSW 8.1 mph - N/A   Clear
10:15 PM 37.4 °F 30.8 °F 32.0 °F 81% 29.91 in 10.0 mi SW 9.2 mph - N/A   Clear
10:35 PM 37.4 °F 31.4 °F 32.0 °F 81% 29.92 in 10.0 mi SSW 8.1 mph - N/A   Clear
10:55 PM 37.4 °F 30.8 °F 32.0 °F 81% 29.92 in 10.0 mi SW 9.2 mph - N/A   Clear
11:15 PM 37.4 °F 31.4 °F 32.0 °F 81% 29.92 in 10.0 mi SW 8.1 mph - N/A   Clear
11:55 PM 37.4 °F 32.1 °F 32.0 °F 81% 29.92 in 10.0 mi SW 6.9 mph - N/A   Clear